Location: Frankfurt+am+Main
(50.1100°N, 8.4815°E)
Time: 00:26:10
(UTC+01:00)

OTV 5 (USA 277) - Visible Passes

Search period start: 13 December 2017 00:00
Search period end: 23 December 2017 00:00
Orbit: 404 x 417 km, 43.0° (Epoch: 07 September)

Date Brightness Start Highest point End Pass type
(mag) Time Alt. Az. Time Alt. Az. Time Alt. Az.
13 Dec ? 18:01:56 10° WSW 18:04:14 17° SSW 18:06:31 10° SSE visible
14 Dec ? 17:10:47 10° WSW 17:13:20 20° SSW 17:15:52 10° SE visible
15 Dec ? 17:58:03 10° SW 17:58:59 11° SSW 17:59:55 10° S visible
16 Dec ? 17:06:18 10° SW 17:08:07 14° SSW 17:09:57 10° SSE visible
